User: anonymous   Login
Location: Waldport
(44.4270°N, 124.0680°W)
Time: 09:40:07
(UTC-07:00)
Language:

Cosmos 1023 Rocket - Orbit

View from above orbital plane
View from above orbital plane
View from above satellite
View from above satellite

Ground track
Ground track

The orbit data is extracted from the following two-line orbital elements,

1 10962U 78063B   17202.23017810 -.00000024 +00000-0 +61717-6 0  9991
2 10962 074.0796 156.0723 0024247 048.3081 312.0144 14.41090395050590
Epoch (UTC): 21 July 2017 05:31:27
Eccentricity: 0.0024247
inclination: 74.0796°
perigee height: 737 km
apogee height: 772 km
right ascension of ascending node: 156.0723°
argument of perigee: 48.3081°
revolutions per day: 14.41090395
mean anomaly at epoch: 312.0144°
orbit number at epoch: 5059

The dashed part of the orbit path shows where the satellite is in the earth's shadow,  

DLR